Tracking 25953 objects as of 16-Aug-2022
HD Live streaming from Space Station
objects crossing your sky now

TITAN 34D TRANSTAGE DEB

Track TITAN 34D TRANSTAGE DEB now!


NORAD ID: 23039
Int'l Code: 1988-077J
Perigee: 458.6 km
Apogee: 39,415.3 km
Inclination: 26.2 °
Period: 707.8 minutes
Semi major axis: 26307 km
RCS: Unknown
Launch date: September 2, 1988
Source: United States (US)
Launch site: AIR FORCE EASTERN TEST RANGE (AFETR)

Note: This is SATELLITE DEBRIS
aabbcc
Your satellite tracking list
Your tracking list is empty




NASA's NSSDC Master Catalog

Two Line Element Set (TLE):
1 23039U 88077J   22226.95820811 -.00000232  00000-0  35224-3 0  9992
2 23039  26.1877 184.9522 7403992 280.7744  10.8863  2.03457395 22634
Source of the keplerian elements: AFSPC